Flag for Canada Weather past 2 weeks in Whitehorse, Yukon Territory, Canada

Now
25 °F

Partly sunny.


Feels Like: 14 °F
Forecast: 7 / 22 °F
Wind: 12 mph from South

Location: Withehorse

Current Time: Dec 22, 2014 at 1:23:59 PM

Latest Report: Dec 22, 2014 at 12:00 PM


Visibility: 40 mi

Pressure: 29.94 "Hg

Humidity: 80%

Dew point: 19 °F

Location of WhitehorseLocation

Historic Weather in Whitehorse — Graph

°F

Whitehorse temperature yesterday

Maximum temperature yesterday: 21 °F (at 2:00 PM)
Minimum temperature yesterday: 10 °F (at 12:00 AM)
Average temperature yesterday: 19 °F

Past Weeks' High & Low Weather Summary

 TemperatureHumidityPressure
High34 °F (Dec 9, 4:00 AM)100% (Dec 9, 7:00 PM)30.14 "Hg (Dec 9, 7:00 PM)
Low-4 °F (Dec 18, 10:00 AM)64% (Dec 16, 1:00 AM)28.90 "Hg (Dec 9, 4:00 PM)
Average20 °F86%29.53 "Hg
* Reported Dec 7 12:00 Noon — Dec 22 12:00 Noon, Whitehorse, Weather by CustomWeather, © 2014

Note: Actual official high and low records may vary slightly from our data, if they occured in-between our weather recording intervals... More about our weather records

Advertising

Whitehorse weather history for previous 24 hours

 ConditionsComfort  
Time TempWeatherWind HumidityBarometerVisibility
12:00 PM
Dec 22
25 °FPartly sunny.12 mph80%29.94 "Hg40 mi
11:00 AM23 °FPartly sunny.12 mph80%29.92 "Hg40 mi
10:00 AM21 °FPartly cloudy.6 mph86%29.90 "Hg40 mi
9:00 AM21 °FPartly cloudy.9 mph86%29.88 "Hg15 mi
8:00 AM21 °FPartly cloudy.6 mph93%29.85 "Hg15 mi
7:00 AM21 °FPassing clouds.10 mph93%29.84 "Hg15 mi
6:00 AM21 °FPassing clouds.10 mph93%29.81 "Hg15 mi
5:00 AM21 °FLow clouds.13 mph93%29.79 "Hg15 mi
4:20 AM21 °FPassing clouds.9 mph93%29.77 "Hg15 mi
3:00 AM21 °FMostly cloudy.15 mph93%29.74 "Hg10 mi
2:00 AM21 °FMostly cloudy.21 mph93%29.71 "Hg10 mi
1:00 AM21 °FMostly cloudy.20 mph93%29.68 "Hg10 mi
12:00 AM21 °FMostly cloudy.23 mph93%29.65 "Hg10 mi
11:45 PM
Dec 21
21 °FMostly cloudy.21 mph93%29.66 "Hg10 mi
11:00 PM21 °FPartly cloudy.23 mph93%29.64 "Hg10 mi
10:00 PM21 °FPartly cloudy.25 mph86%29.60 "Hg10 mi
9:00 PM21 °FMostly cloudy.24 mph93%29.58 "Hg15 mi
8:00 PM21 °FLow clouds.23 mph93%29.56 "Hg15 mi
7:00 PM21 °FLow clouds.25 mph93%29.54 "Hg10 mi
6:00 PM21 °FLow clouds.23 mph93%29.52 "Hg15 mi
5:00 PM21 °FMostly cloudy.21 mph93%29.52 "Hg15 mi
4:00 PM21 °FMostly cloudy.21 mph93%29.50 "Hg25 mi
3:00 PM21 °FPartly sunny.20 mph86%29.50 "Hg30 mi
2:00 PM21 °FBroken clouds.25 mph86%29.48 "Hg40 mi
1:00 PM19 °FBroken clouds.24 mph93%29.46 "Hg40 mi
Weather by CustomWeather, © 2014

See weather overviewHow to use our weather pages